Showing default

PRAETORIAN SDA_617, 65580

Orbit data source: Space-Track

PRAETORIAN SDA_617, 65580 is a payload satellite owned by SDA (US) in LEO that was launched on Wed, 10 Sep 2025 UTC via an FALCON 9 launch vehicle from the Air Force Western Test Range (AFWTR). Payload-class satellites include a variety of spacecraft equipped with specific instruments for various scientific and technological missions. These include communications satellites like Starlink; space stations such as the ISS; scientific satellites like the Hubble; Earth observation satellites from companies like Planet Labs, Umbra, and HawkEye 360; GPS; miniature CubeSats for education and research; and military/defense satellites.

Loading next visibility...
Identifier
65580, 2025-203R
Orbit
LEO
Country
Flag of USUS
Related business
Manufacturer
York Space Sys
Mission
Operational Defense Communications
Bus & Motor
S-CLASS, Unknown motor
Mass
~300 kg wet, ~300 kg dry
Launch date (UTC)
2025-09-10 (9 months ago)
Launch vehicle
FALCON 9
Launch site
Air Force Western Test Range (AFWTR)
Object type
Payload
Rocket body
Debris
Shape & HBR
Box + 4 Pan, 14.5 m
Radar Cross Section
1.244 m², Large (>1 m²)

Expand to show TLE details & history
Last TLE update: 10 hours ago

TLE from 10 hours ago
0 PRAETORIAN SDA_617
1 65580U 25203R   26171.47718117  .00000022  00000-0  90612-5 0  9996
2 65580  81.3036   7.8658 0007451 175.0795 185.0435 13.83150161 39144
Epoch: 2026-06-20T11:27Z
TLE epoch observation values (Epoch: 2026-06-20T11:27:08.453Z)
Latitude
-0.00007°
Longitude
-72.61068°
Altitude
961.041 km
Speed
7.368 km/s
True Right ascension
00h 31m 27s
True Declination
0° 00' 00"
Sunlit
Object was in daylight at epoch
Visualization orbit readout
Latitude
Unknown
Longitude
Unknown
Altitude
Unknown
Speed
Unknown
Apparent Right ascension
Unknown
Apparent Declination
Unknown
Sunlit
N/A
Visualization observer readout
Local Sidereal Time
08:32:39
Azimuth
Unknown
Elevation
Unknown
Doppler factor
Unknown
Orbital elements
Apogee altitude
955.402 km
Perigee altitude
944.482 km
Semi-major axis
7,328.079 km
Eccentricity
0.00075
Inclination
81.3036°
RAAN
7.8658°
Arg. of periapsis
175.0795°
True anomaly
185.036°
Mean anomaly
185.0435°
Eccentric anomaly
185.03975°
Mean motion
3.45986 °/min
Orbital period
104.05 mins
BSTAR
0.0000090612
Loading maneuver chart data...
Computing Atmospheric mass density...

Documentation

Showing up to 5 results
|